Terminal Aerodrome Forecast
Issued by NWS

Home | Current Version | Previous Version | Text Only | Print | Product List | Glossary On
Versions: 1 2 3 4 5 6 7 8 9 10 11 12 13 14 15
000
FTUS42 TJSJ 181100 RRA
TAFJBQ
TAF
TJBQ 181139Z 1812/1912 10008KT P6SM VCSH SCT022 SCT060
     FM181430 08020G26KT P6SM SCT030 SCT060
     FM182330 09010KT P6SM FEW030 SCT070=

USA.gov is the U.S. government's official web portal to all federal, state and local government web resources and services.